Weather History for Faribault, MN

Change the Weather History Date:

Sunday, January 13, 2013

  Actual Average Record
Temperature  
Mean Temperature 4 °F -  
Max Temperature 8 °F 21 °F 47 °F (1980)
Min Temperature 1 °F 3 °F -24 °F (1965)
Degree Days  
Heating Degree Days 60    
Moisture  
Dew Point 0 °F    
Average Humidity 83    
Maximum Humidity 92    
Minimum Humidity 73    
Precipitation  
Precipitation 0.00 in - - ()
Sea Level Pressure  
Sea Level Pressure 30.11 in    
Wind  
Wind Speed 8 mph (West)    
Max Wind Speed 13 mph    
Max Gust Speed 20 mph    
Visibility 9 miles    
Events Snow    
Averages and records for this station are not official NWS values.
T = Trace of Precipitation, MM = Missing Value Source: NWS Daily Summary

Daily Weather History Graph

Daily Weather History Graph

Search for Another Location

Airport:

Trip Planner

Search our weather history database for the weather conditions in past years. The results will help you decide how hot, cold, wet, or windy it might be!

Date:

Astronomy

Jan. 13, 2013 Rise Set
Actual Time 7:46 AM CST 4:57 PM CST
Civil Twilight 7:14 AM CST 5:30 PM CST
Nautical Twilight 6:38 AM CST 6:06 PM CST
Astronomical Twilight 6:03 AM CST 6:41 PM CST
Moon 8:39 AM CST (1/13) 7:44 PM CST (1/13)
Length of Visible Light 10h 16m
Length of Day
9h 11m
Waxing Crescent, 5% of the Moon is Illuminated
Jan 13
Waxing Crescent
Jan 18
First Quarter
Jan 26
Full
Feb 3
Last Quarter
Feb 10
New

Hourly Weather History & Observations

Time (CST) Temp. Windchill Dew Point Humidity Pressure Visibility Wind Dir Wind Speed Gust Speed Precip Events Conditions
12:14 AM 3.2 °F -10.3 °F -0.4 °F 85% 30.06 in 10.0 mi West 8.1 mph - N/A   Mostly Cloudy
12:34 AM 3.2 °F -10.3 °F -0.4 °F 85% 30.04 in 10.0 mi WNW 8.1 mph - N/A   Scattered Clouds
12:54 AM 3.2 °F -9.1 °F -0.4 °F 85% 30.04 in 10.0 mi WNW 6.9 mph - N/A   Scattered Clouds
1:14 AM 3.2 °F -10.3 °F -0.4 °F 85% 30.04 in 10.0 mi WNW 8.1 mph - N/A   Clear
1:34 AM 3.2 °F -12.2 °F -2.2 °F 78% 30.04 in 10.0 mi WNW 10.4 mph - N/A   Clear
1:54 AM 1.4 °F -12.5 °F -2.2 °F 85% 30.04 in 10.0 mi WNW 8.1 mph - N/A   Clear
2:14 AM 1.4 °F -12.5 °F -0.4 °F 92% 30.04 in 10.0 mi NW 8.1 mph - N/A   Clear
2:34 AM 1.4 °F -11.3 °F -2.2 °F 85% 30.04 in 10.0 mi WNW 6.9 mph - N/A   Clear
2:54 AM 1.4 °F -11.3 °F -2.2 °F 85% 30.04 in 10.0 mi WNW 6.9 mph - N/A   Clear
3:14 AM 1.4 °F -11.3 °F -2.2 °F 85% 30.04 in 10.0 mi WNW 6.9 mph - N/A   Clear
3:34 AM 1.4 °F -9.9 °F -2.2 °F 85% 30.04 in 10.0 mi WNW 5.8 mph - N/A   Clear
3:54 AM 1.4 °F -9.9 °F -2.2 °F 85% 30.04 in 10.0 mi WNW 5.8 mph - N/A   Clear
4:14 AM 1.4 °F -12.5 °F -2.2 °F 85% 30.03 in 10.0 mi West 8.1 mph - N/A   Clear
4:34 AM 1.4 °F -12.5 °F -2.2 °F 85% 30.03 in 10.0 mi West 8.1 mph - N/A   Clear
4:54 AM 1.4 °F -11.3 °F -2.2 °F 85% 30.02 in 10.0 mi WNW 6.9 mph - N/A   Clear
5:14 AM 1.4 °F -11.3 °F -2.2 °F 85% 30.04 in 10.0 mi WNW 6.9 mph - N/A   Clear
5:34 AM 1.4 °F -12.5 °F -2.2 °F 85% 30.04 in 10.0 mi WNW 8.1 mph - N/A   Clear
5:53 AM 1.4 °F -11.3 °F -2.2 °F 85% 30.05 in 10.0 mi WNW 6.9 mph - N/A   Clear
6:14 AM 1.4 °F -11.3 °F -2.2 °F 85% 30.07 in 10.0 mi WNW 6.9 mph - N/A   Clear
6:34 AM 1.4 °F -11.3 °F -2.2 °F 85% 30.07 in 10.0 mi WNW 6.9 mph - N/A   Clear
6:54 AM 1.4 °F -12.5 °F -2.2 °F 85% 30.08 in 10.0 mi West 8.1 mph - N/A   Clear
7:14 AM 1.4 °F -9.9 °F -2.2 °F 85% 30.09 in 10.0 mi West 5.8 mph - N/A   Mostly Cloudy
7:34 AM 1.4 °F -8.3 °F -2.2 °F 85% 30.09 in 10.0 mi WNW 4.6 mph - N/A   Overcast
7:54 AM 1.4 °F -9.9 °F -2.2 °F 85% 30.10 in 10.0 mi WNW 5.8 mph - N/A   Overcast
8:14 AM 1.4 °F -9.9 °F -2.2 °F 85% 30.11 in 10.0 mi NW 5.8 mph - N/A   Overcast
8:34 AM 3.2 °F -7.8 °F -0.4 °F 85% 30.11 in 10.0 mi WNW 5.8 mph - N/A   Overcast
8:54 AM 3.2 °F -9.1 °F -0.4 °F 85% 30.13 in 10.0 mi WNW 6.9 mph - N/A   Overcast
9:14 AM 3.2 °F -9.1 °F -0.4 °F 85% 30.13 in 10.0 mi West 6.9 mph - N/A   Overcast
9:34 AM 3.2 °F -11.3 °F -0.4 °F 85% 30.13 in 5.0 mi West 9.2 mph - N/A   Overcast
9:54 AM 3.2 °F -12.2 °F -0.4 °F 85% 30.12 in 4.0 mi West 10.4 mph - N/A Snow Light Snow
10:14 AM 3.2 °F -9.1 °F -0.4 °F 85% 30.12 in 3.0 mi WNW 6.9 mph - N/A Snow Light Snow
10:34 AM 6.8 °F -6.9 °F 1.4 °F 79% 30.11 in 3.0 mi WNW 9.2 mph - N/A Snow Light Snow
10:54 AM 5.0 °F -9.1 °F 1.4 °F 85% 30.10 in 5.0 mi West 9.2 mph - N/A Snow Light Snow
11:14 AM 5.0 °F -8.1 °F 1.4 °F 85% 30.09 in 5.0 mi WNW 8.1 mph - N/A Snow Light Snow
11:34 AM 6.8 °F -8.6 °F 1.4 °F 79% 30.08 in 7.0 mi West 11.5 mph - N/A   Overcast
11:54 AM 6.8 °F -9.3 °F 1.4 °F 79% 30.07 in 10.0 mi West 12.7 mph - N/A   Mostly Cloudy
12:14 PM 6.8 °F -9.3 °F 1.4 °F 79% 30.07 in 10.0 mi West 12.7 mph - N/A   Scattered Clouds
12:34 PM 6.8 °F -9.3 °F 1.4 °F 79% 30.08 in 10.0 mi West 12.7 mph - N/A   Mostly Cloudy
12:54 PM 6.8 °F -6.9 °F 1.4 °F 79% 30.08 in 10.0 mi West 9.2 mph - N/A   Mostly Cloudy
1:14 PM 6.8 °F -7.8 °F 1.4 °F 79% 30.08 in 7.0 mi West 10.4 mph - N/A   Overcast
1:34 PM 6.8 °F -8.6 °F 1.4 °F 79% 30.08 in 10.0 mi West 11.5 mph - N/A   Mostly Cloudy
1:53 PM 8.6 °F -5.5 °F 1.4 °F 73% 30.09 in 7.0 mi WSW 10.4 mph - N/A   Mostly Cloudy
2:14 PM 8.6 °F -5.5 °F 3.2 °F 79% 30.09 in 7.0 mi WSW 10.4 mph - N/A   Overcast
2:34 PM 8.6 °F -4.7 °F 1.4 °F 73% 30.10 in 7.0 mi West 9.2 mph - N/A   Mostly Cloudy
2:54 PM 8.6 °F -6.3 °F 1.4 °F 73% 30.10 in 10.0 mi West 11.5 mph 16.1 mph N/A   Mostly Cloudy
3:14 PM 8.6 °F -6.3 °F 1.4 °F 73% 30.11 in 10.0 mi West 11.5 mph - N/A   Mostly Cloudy
3:34 PM 8.6 °F -7.0 °F 3.2 °F 79% 30.11 in 10.0 mi West 12.7 mph - N/A   Mostly Cloudy
3:54 PM 8.6 °F -5.5 °F 3.2 °F 79% 30.12 in 10.0 mi WSW 10.4 mph - N/A   Overcast
4:14 PM 8.6 °F -4.7 °F 1.4 °F 73% 30.13 in 10.0 mi West 9.2 mph - N/A   Overcast
4:34 PM 8.6 °F -5.5 °F 1.4 °F 73% 30.14 in 10.0 mi West 10.4 mph - N/A   Overcast
4:54 PM 6.8 °F -6.9 °F 1.4 °F 79% 30.14 in 10.0 mi West 9.2 mph - N/A   Overcast
5:14 PM 6.8 °F -8.6 °F 1.4 °F 79% 30.14 in 10.0 mi West 11.5 mph - N/A   Overcast
5:34 PM 6.8 °F -7.8 °F 1.4 °F 79% 30.15 in 10.0 mi West 10.4 mph - N/A   Scattered Clouds
5:54 PM 5.0 °F -11.6 °F 1.4 °F 85% 30.16 in 10.0 mi West 12.7 mph 16.1 mph N/A   Clear
6:14 PM 5.0 °F -11.6 °F 1.4 °F 85% 30.16 in 10.0 mi West 12.7 mph - N/A   Clear
6:34 PM 3.2 °F -13.1 °F 1.4 °F 92% 30.17 in 10.0 mi West 11.5 mph - N/A   Clear
6:54 PM 3.2 °F -13.1 °F -0.4 °F 85% 30.18 in 10.0 mi West 11.5 mph 19.6 mph N/A   Clear
7:14 PM 3.2 °F -11.3 °F -0.4 °F 85% 30.18 in 10.0 mi West 9.2 mph - N/A   Clear
7:34 PM 3.2 °F -10.3 °F -0.4 °F 85% 30.18 in 10.0 mi West 8.1 mph - N/A   Clear
7:54 PM 3.2 °F -11.3 °F -0.4 °F 85% 30.18 in 10.0 mi West 9.2 mph - N/A   Clear
8:14 PM 3.2 °F -11.3 °F -0.4 °F 85% 30.19 in 10.0 mi West 9.2 mph - N/A   Clear
8:34 PM 3.2 °F -9.1 °F -0.4 °F 85% 30.20 in 10.0 mi West 6.9 mph - N/A   Clear
8:54 PM 3.2 °F -7.8 °F -0.4 °F 85% 30.21 in 10.0 mi SW 5.8 mph - N/A   Clear
9:14 PM 3.2 °F -6.2 °F -0.4 °F 85% 30.21 in 10.0 mi SSW 4.6 mph - N/A   Clear
9:34 PM 3.2 °F -6.2 °F -0.4 °F 85% 30.21 in 10.0 mi SW 4.6 mph - N/A   Clear
9:54 PM 3.2 °F -4.2 °F -0.4 °F 85% 30.21 in 10.0 mi SW 3.5 mph - N/A   Clear
10:34 PM 3.2 °F -6.2 °F -0.4 °F 85% 30.22 in 10.0 mi SW 4.6 mph - N/A   Clear
10:54 PM 3.2 °F -4.2 °F -0.4 °F 85% 30.22 in 10.0 mi SW 3.5 mph - N/A   Clear
11:34 PM 3.2 °F -4.2 °F -0.4 °F 85% 30.23 in 10.0 mi SW 3.5 mph - N/A   Clear
11:54 PM 3.2 °F -4.2 °F -0.4 °F 85% 30.23 in 10.0 mi SSW 3.5 mph - N/A   Clear